📊 Raw Sensor Data
Showing records 32226 to 32250 of 84,681 total
| ID | Distance (ft) | Battery V | Battery A | Int Temp (°F) | Int Humid (%) | Ext Temp (°F) | Solar V | RSSI | SNR | Time Stamp |
|---|---|---|---|---|---|---|---|---|---|---|
| 52468 | 15.1 | 4.05 | 0 | 98 | 47 | 89 | 5.10 | -73 | 8 | 09/19/2025 05:45 PM |
| 52467 | 15.1 | 4.05 | 0 | 98 | 46 | 82 | 5.10 | -72 | 8 | 09/19/2025 05:30 PM |
| 52466 | 15.2 | 4.05 | 0 | 100 | 44 | 85 | 5.10 | -73 | 8 | 09/19/2025 05:15 PM |
| 52465 | 15.3 | 4.05 | 0 | 99 | 44 | 89 | 5.10 | -72 | 8 | 09/19/2025 05:00 PM |
| 52464 | 15.3 | 4.05 | 0 | 99 | 43 | 84 | 5.10 | -73 | 8 | 09/19/2025 04:45 PM |
| 52463 | 15.2 | 4.05 | 0 | 97 | 42 | 87 | 5.10 | -72 | 7 | 09/19/2025 04:30 PM |
| 52462 | 15.1 | 4.08 | 0 | 92 | 44 | 82 | 5.10 | -73 | 7 | 09/19/2025 04:15 PM |
| 52461 | 15.1 | 4.04 | 0 | 90 | 45 | 82 | 5.10 | -74 | 7 | 09/19/2025 04:00 PM |
| 52460 | 15.1 | 4.05 | 0 | 89 | 45 | 80 | 5.10 | -73 | 8 | 09/19/2025 03:45 PM |
| 52459 | 15.1 | 4.04 | 0 | 90 | 45 | 82 | 5.10 | -72 | 8 | 09/19/2025 03:30 PM |
| 52458 | 13.8 | 4.04 | 0 | 89 | 45 | 81 | 5.10 | -72 | 8 | 09/19/2025 03:15 PM |
| 52457 | 15.1 | 4.04 | 0 | 91 | 44 | 82 | 5.10 | -71 | 8 | 09/19/2025 03:00 PM |
| 52456 | 15.1 | 4.11 | 0 | 89 | 44 | 82 | 5.10 | -73 | 8 | 09/19/2025 02:45 PM |
| 52455 | 15.1 | 4.04 | 0 | 87 | 45 | 81 | 5.10 | -71 | 7 | 09/19/2025 02:30 PM |
| 52454 | 15.1 | 4.04 | 0 | 86 | 46 | 82 | 5.10 | -71 | 7 | 09/19/2025 02:15 PM |
| 52453 | 15.1 | 4.13 | 0 | 85 | 46 | 79 | 5.10 | -71 | 7 | 09/19/2025 02:00 PM |
| 52452 | 15.1 | 4.05 | 0 | 86 | 46 | 79 | 5.10 | -71 | 8 | 09/19/2025 01:45 PM |
| 52451 | 15.1 | 4.04 | 0 | 87 | 46 | 80 | 5.10 | -72 | 7 | 09/19/2025 01:30 PM |
| 52450 | 15.2 | 4.04 | 0 | 88 | 45 | 82 | 5.10 | -72 | 8 | 09/19/2025 01:15 PM |
| 52449 | 15.1 | 4.04 | 0 | 88 | 45 | 83 | 5.10 | -72 | 8 | 09/19/2025 01:00 PM |
| 52448 | 15.0 | 4.04 | 0 | 90 | 43 | 82 | 5.10 | -73 | 8 | 09/19/2025 12:45 PM |
| 52447 | 15.2 | 4.04 | 0 | 90 | 42 | 84 | 5.10 | -72 | 7 | 09/19/2025 12:30 PM |
| 52446 | 13.9 | 4.09 | 0 | 89 | 42 | 83 | 5.10 | -74 | 7 | 09/19/2025 12:15 PM |
| 52445 | 14.0 | 4.04 | 0 | 88 | 42 | 83 | 5.10 | -73 | 8 | 09/19/2025 12:00 PM |
| 52444 | -- | 4.04 | 0 | 86 | 42 | 82 | 5.10 | -72 | 8 | 09/19/2025 11:45 AM |